Location: Lafig�re
(44.4503°N, 4.0357°E)
Time: 17:40:22
(UTC+00:00)

deb Explorer IX - Pass Details

Date: 21 January 2021
Orbit: 537 x 1102 km, 38.8° (Epoch: 04 March)

Event Time Altitude Azimuth Distance (km) Brightness Sun altitude
Rises 21:03:22 0° 262° (W) 3,300 ? -46.7°
Enters shadow 21:04:50 - 260° (W) 2,749 ? -46.9°
Reaches altitude 10° 21:06:08 10° 256° (WSW) 2,270 - -47.1°
Maximum altitude 21:11:04 42° 187° (S) 950 - -48.0°
Drops below altitude 10° 21:15:20 10° 116° (ESE) 1,962 - -48.7°
Sets 21:17:34 0° 109° (ESE) 2,803 - -49.0°
